This demonstration page uses our WeatherBlox Daily Observations layout. Learn more.

40.92945, -100.16068

Hourly Observations for January 16, 2015

Temp ( °F °C ) Dew Point ( °F °C ) Humidity (%) Winds ( mph kmh ) Pressure ( in mb ) Visibility ( mi km ) Precip ( " mm )
12:15 am 00:15 Clear 26 -3.4 23 -4.8 90 90 WNW 5 7 30.24 1024 10 16.0934 N/A
12:35 am 00:35 Clear 26 -3.1 22 -5.3 85 85 W 7 11 30.24 1024 10 16.0934 N/A
12:55 am 00:55 Clear 27 -3 23 -5 86 86 W 9 15 30.24 1024 10 16.0934 N/A
1:15 am 01:15 Clear 29 -1.9 24 -4.4 83 83 WNW 6 9 30.24 1024 10 16.0934 N/A
1:35 am 01:35 Clear 24 -4.3 21 -6 88 88 W 3 6 30.21 1023 10 16.0934 N/A
1:55 am 01:55 Clear 23 -5.2 20 -6.9 88 88 Calm 30.24 1024 10 16.0934 N/A
2:15 am 02:15 Clear 25 -3.8 23 -5.2 90 90 Calm 30.21 1023 10 16.0934 N/A
2:35 am 02:35 Clear 24 -4.7 21 -6.3 89 89 Calm 30.21 1023 10 16.0934 N/A
2:55 am 02:55 Clear 22 -5.5 19 -7.1 89 89 Calm 30.21 1023 10 16.0934 N/A
3:10 am 03:10 Clear 22 -5.6 19 -7.1 89 89 Calm 30.21 1023 10 16.0934 N/A
3:35 am 03:35 Clear 25 -4 21 -6.2 85 85 SW 7 11 30.18 1022 10 16.0934 N/A
3:55 am 03:55 Clear 23 -5.2 19 -7 87 87 SW 7 11 30.21 1023 10 16.0934 N/A
4:15 am 04:15 Clear 26 -3.5 22 -5.7 85 85 WSW 6 9 30.18 1022 10 16.0934 N/A
4:35 am 04:35 Clear 27 -2.9 22 -5.4 83 83 WSW 7 11 30.18 1022 10 16.0934 N/A
4:55 am 04:55 Clear 26 -3.6 21 -5.9 84 84 WSW 5 7 30.18 1022 10 16.0934 N/A
5:15 am 05:15 Clear 26 -3.6 22 -5.8 85 85 WSW 5 7 30.18 1022 10 16.0934 N/A
5:35 am 05:35 Clear 25 -3.8 21 -6.1 84 84 SW 5 7 30.18 1022 10 16.0934 N/A
5:55 am 05:55 Clear 26 -3.5 22 -5.6 86 86 SW 7 11 30.15 1021 10 16.0934 N/A
6:15 am 06:15 Clear 26 -3.6 22 -5.6 86 86 SW 5 7 30.15 1021 10 16.0934 N/A
6:35 am 06:35 Clear 25 -3.7 22 -5.8 86 86 W 5 7 30.15 1021 10 16.0934 N/A
6:55 am 06:55 Clear 19 -7.2 17 -8.6 90 90 WNW 5 7 30.18 1022 10 16.0934 N/A
7:15 am 07:15 Clear 19 -7.3 16 -8.9 88 88 WNW 6 9 30.18 1022 10 16.0934 N/A
7:35 am 07:35 Clear 18 -7.6 16 -9 90 90 WNW 7 11 30.21 1023 10 16.0934 N/A
7:55 am 07:55 Clear 18 -8 15 -9.4 90 90 WNW 6 9 30.21 1023 10 16.0934 N/A
8:15 am 08:15 Sunny 18 -7.7 16 -9 91 91 NW 5 7 30.15 1021 7 11.26538 N/A
8:35 am 08:35 Sunny 19 -7.3 17 -8.5 91 91 NW 7 11 30.15 1021 10 16.0934 N/A
8:55 am 08:55 Sunny 23 -5.2 20 -6.6 90 90 Calm 30.12 1020 7 11.26538 N/A
9:15 am 09:15 Sunny 26 -3.4 23 -5 89 89 W 3 6 30.12 1020 10 16.0934 N/A
9:35 am 09:35 Sunny 28 -2.2 24 -4.3 86 86 WNW 3 6 30.09 1019 10 16.0934 N/A
9:55 am 09:55 Sunny 30 -1 26 -3.4 84 84 NW 5 7 30.09 1019 10 16.0934 N/A
10:15 am 10:15 Sunny 32 0.1 27 -2.6 82 82 WNW 7 11 30.09 1019 10 16.0934 N/A
10:35 am 10:35 Sunny 35 1.7 29 -1.8 78 78 WNW 8 13 30.06 1018 10 16.0934 N/A
10:55 am 10:55 Sunny 36 2 29 -1.8 76 76 W 6 9 30.06 1018 10 16.0934 N/A
11:15 am 11:15 Sunny 38 3.3 28 -2 69 69 WNW 9 15 30.06 1018 10 16.0934 N/A
11:35 am 11:35 Sunny 41 4.9 29 -1.6 63 63 WNW 9 15 30.03 1017 10 16.0934 N/A
11:55 am 11:55 Sunny 43 6.2 30 -1.3 59 59 WNW 7 11 30 1016 10 16.0934 N/A
12:15 pm 12:15 Sunny 44 6.8 30 -0.9 58 58 WNW 3 6 29.97 1015 10 16.0934 N/A
12:35 pm 12:35 Sunny 46 7.6 31 -0.7 56 56 Calm 29.94 1014 10 16.0934 N/A
12:55 pm 12:55 Sunny 48 9 30 -1 50 50 WNW 5 7 29.94 1014 10 16.0934 N/A
1:15 pm 13:15 Sunny 50 9.9 29 -1.7 45 45 NNW 5 7 29.88 1012 10 16.0934 N/A
1:35 pm 13:35 Sunny 50 9.9 29 -1.9 44 44 NW 7 11 29.88 1012 10 16.0934 N/A
1:55 pm 13:55 Sunny 51 10.5 28 -2 42 42 WNW 8 13 29.88 1012 10 16.0934 N/A
2:15 pm 14:15 Sunny 53 11.6 30 -1.3 41 41 WNW 3 6 29.83 1010 10 16.0934 N/A
2:35 pm 14:35 Sunny 53 11.5 30 -1.3 41 41 Calm 29.83 1010 10 16.0934 N/A
2:55 pm 14:55 Sunny 52 11.1 30 -1 43 43 Calm 29.83 1010 10 16.0934 N/A
3:15 pm 15:15 Sunny 54 12.4 28 -2.1 37 37 N 5 7 29.8 1009 10 16.0934 N/A
3:35 pm 15:35 Sunny 57 13.7 25 -3.8 30 30 Calm 29.8 1009 10 16.0934 N/A
3:55 pm 15:55 Sunny 55 12.7 29 -1.7 37 37 SW 6 9 29.8 1009 10 16.0934 N/A
4:15 pm 16:15 Sunny 54 12 29 -1.7 39 39 S 3 6 29.8 1009 10 16.0934 N/A
4:35 pm 16:35 Sunny 52 11.2 31 -0.7 44 44 S 8 13 29.83 1010 10 16.0934 N/A
4:55 pm 16:55 Sunny 50 10.1 32 0 50 50 SSW 10 17 29.83 1010 10 16.0934 N/A
5:15 pm 17:15 Sunny 47 8.6 32 0 55 55 S 7 11 29.83 1010 10 16.0934 N/A
5:35 pm 17:35 Sunny 45 7.4 31 -0.6 57 57 SW 7 11 29.85 1011 10 16.0934 N/A
5:55 pm 17:55 Clear 42 5.7 29 -1.5 60 60 SSW 7 11 29.85 1011 10 16.0934 N/A
6:15 pm 18:15 Clear 40 4.5 29 -1.6 65 65 SSW 6 9 29.83 1010 10 16.0934 N/A
6:35 pm 18:35 Clear 38 3.3 28 -2 69 69 SSW 7 11 29.85 1011 10 16.0934 N/A
6:55 pm 18:55 Clear 42 5.4 30 -1 64 64 SSW 5 7 29.83 1010 10 16.0934 N/A
7:15 pm 19:15 Clear 40 4.2 30 -1.1 69 69 SSW 5 7 29.85 1011 10 16.0934 N/A
7:35 pm 19:35 Clear 40 4.3 31 -0.7 70 70 SW 8 13 29.85 1011 10 16.0934 N/A
7:55 pm 19:55 Clear 38 3.1 30 -0.9 75 75 WNW 3 6 29.85 1011 10 16.0934 N/A
8:15 pm 20:15 Clear 39 3.8 30 -1.1 71 71 Calm 29.85 1011 10 16.0934 N/A
8:35 pm 20:35 Clear 41 4.8 30 -1.1 66 66 S 12 19 29.8 1009 10 16.0934 N/A
8:55 pm 20:55 Clear 40 4.4 31 -0.5 71 71 SSE 7 11 29.8 1009 10 16.0934 N/A
9:15 pm 21:15 Clear 36 2.2 30 -1.2 78 78 NW 10 17 29.85 1011 10 16.0934 N/A
9:35 pm 21:35 Clear 35 1.7 29 -1.4 80 80 NNW 6 9 29.85 1011 10 16.0934 N/A
9:55 pm 21:55 Clear 33 0.4 28 -2 84 84 WNW 6 9 29.85 1011 10 16.0934 N/A
10:15 pm 22:15 Partly Cloudy 36 2.2 31 -0.6 82 82 NW 9 15 29.85 1011 10 16.0934 N/A
10:35 pm 22:35 Mostly Cloudy 37 3 31 -0.6 77 77 WNW 6 9 29.83 1010 10 16.0934 N/A
10:55 pm 22:55 Partly Cloudy 37 2.9 31 -0.6 78 78 W 9 15 29.85 1011 10 16.0934 N/A
11:15 pm 23:15 Clear 38 3.2 30 -1 74 74 SW 7 11 29.83 1010 10 16.0934 N/A
11:35 pm 23:35 Clear 37 2.5 29 -1.5 75 75 NNW 6 9 29.83 1010 10 16.0934 N/A
11:55 pm 23:55 Clear 34 1.2 29 -1.7 81 81 NNW 5 7 29.85 1011 10 16.0934 N/A

Powered by AerisWeather